Location: Gollag?dem
(16.8053°N, 80.8024°E)
Time: 17:19:22
(UTC+00:00)

Iridium 2 - Pass Details

Date: 13 August 2020
Orbit: 502 x 517 km, 85.5° (Epoch: 17 September)

Event Time Altitude Azimuth Distance (km) Brightness Sun altitude
Rises 13:26:01 0° 4° (N) 2,594 7.4 -6.1°
Reaches altitude 10° 13:28:09 10° 8° (N) 1,707 6.5 -6.6°
Maximum altitude 13:31:49 59° 88° (E) 582 3.7 -7.4°
Drops below altitude 10° 13:35:29 10° 168° (SSE) 1,702 6.0 -8.3°
Sets 13:37:37 0° 172° (S) 2,584 7.0 -8.8°
